Regional Weather Roundup
Issued by NWS State College, PA

Home | Current Version | Previous Version | Text Only | Print | Product List | Glossary Off
Versions: 1 2 3 4 5 6 7 8 9 10 11 12 13 14 15 16 17 18 19 20 21 22 23 24 25 26 27 28 29 30 31 32 33 34 35 36 37 38 39 40 41 42 43 44 45 46 47 48 49 50

000
ASUS41 KCTP 240703
RWRCTP

REGIONAL WEATHER ROUNDUP
NATIONAL WEATHER SERVICE STATE COLLEGE PA
200 AM EST FRI FEB 24 2017

Note: "fair" indicates few or no clouds below 12,000 feet with no
significant weather and/or obstructions to visibility.

* = STATION THAT DOES NOT REPORT PRECIPITATION /E.G. RAIN...SNOW...ETC/
    THUNDER OR FOG.

PAZ002>004-007>009-013>016-020>023-029>032-240800-
WESTERN PENNSYLVANIA

CITY           SKY/WX    TMP DP  RH WIND       PRES   REMARKS
ERIE           TSTM      44  41  89 NE10      29.80S FOG
MEADVILLE      CLOUDY    54  51  90 VRB3      29.79F
FRANKLIN*      CLOUDY    54  50  87 SE7       29.83R
NEW CASTLE     CLOUDY    54  54 100 CALM      29.81S FOG
BEAVER COUNTY  NOT AVBL
BUTLER*        MOCLDY    52  52 100 CALM      29.82F
PITTSBURGH INT CLOUDY    57  53  86 S5        29.81S
PITTSBURGH     CLOUDY    61  50  67 S6        29.81F
INDIANA*       CLOUDY    55  52  88 CALM      29.86F
LATROBE        CLOUDY    55  54  94 CALM      29.84S
WASHINGTON CO* MOCLDY    54  48  82 CALM      29.84S
$$

PAZ004>006-010>012-017>019-024>028-033>037-041-042-045-046-049>053-240800-
CENTRAL PENNSYLVANIA

CITY           SKY/WX    TMP DP  RH WIND       PRES   REMARKS
BRADFORD       CLOUDY    51  51 100 CALM      29.84F
DUBOIS         CLOUDY    54  50  86 CALM      29.84R
CLEARFIELD       N/A    N/A N/A N/A MISG      29.85S
JOHNSTOWN      CLOUDY    56  50  80 S5        29.86R
ALTOONA        CLOUDY    55  50  83 W3        29.85F
STATE COLLEGE  CLOUDY    53  50  88 NW3       29.85S
WILLIAMSPORT   CLOUDY    51  48  89 CALM      29.85S
SELINSGROVE    CLOUDY    48  47  96 CALM      29.86S
FT INDIANTOWN  MOCLDY    51  51 100 CALM      29.87S
CAPITAL CITY   CLOUDY    57  49  74 CALM      29.87R
HARRISBURG     CLOUDY    58  52  80 E5        29.86S
YORK           PTCLDY    61  52  72 S5        29.87R
$$

PAZ038>040-043-044-047-048-054-055-060>062-067>071-240800-
EASTERN PENNSYLVANIA

CITY           SKY/WX    TMP DP  RH WIND       PRES   REMARKS
SCRANTON       CLOUDY    55  53  93 CALM      29.86S
MOUNT POCONO   MOCLDY    52  51  97 SW5       29.89S
ALLENTOWN      CLEAR     59  50  72 S5        29.88S
QUAKERTOWN*    SUNNY     55  50  82 SW5       29.90S
READING        CLOUDY    60  52  74 SW3       29.87F
LANCASTER      CLEAR     54  51  90 E6        29.88S
COATESVILLE    SUNNY     55  52  88 S6        29.92S
POTTSTOWN      CLEAR     57  50  77 S3        29.91S
BLUE BELL      MOCLDY    54  50  87 S5        29.90S
DOYLESTOWN     CLEAR     56  52  86 S6        29.90S
WILLOW GROVE   NOT AVBL
NORTH PHILA    CLEAR     57  51  80 S3        29.93S
PHILADELPHIA   CLEAR     55  50  83 S7        29.93R
$$




USA.gov is the U.S. government's official web portal to all federal, state and local government web resources and services.